owner,sensor,date,latitude,longitude,vertical_datum,sea_water_practical_salinity,qcFlag 
TABS,ioos:station:wmo:42051:1,2017-04-01T00:00:00Z,29.6350,-93.6417,2.0,17.8921,11111222 
TABS,ioos:station:wmo:42051:1,2017-04-01T00:30:00Z,29.6350,-93.6417,2.0,17.9085,11111222 
TABS,ioos:station:wmo:42051:1,2017-04-01T01:00:00Z,29.6350,-93.6417,2.0,17.934,11111222 
TABS,ioos:station:wmo:42051:1,2017-04-01T01:30:00Z,29.6350,-93.6417,2.0,17.9435,11111222 
TABS,ioos:station:wmo:42051:1,2017-04-01T02:00:00Z,29.6350,-93.6417,2.0,17.9576,11111222 
TABS,ioos:station:wmo:42051:1,2017-04-01T02:30:00Z,29.6350,-93.6417,2.0,18.0005,11111222 
TABS,ioos:station:wmo:42051:1,2017-04-01T03:00:00Z,29.6350,-93.6417,2.0,18.025,11111222 
TABS,ioos:station:wmo:42051:1,2017-04-01T03:30:00Z,29.6350,-93.6417,2.0,18.0423,11111222 
TABS,ioos:station:wmo:42051:1,2017-04-01T04:00:00Z,29.6350,-93.6417,2.0,18.0494,11111222 
TABS,ioos:station:wmo:42051:1,2017-04-01T04:30:00Z,29.6350,-93.6417,2.0,18.0531,11111222 
TABS,ioos:station:wmo:42051:1,2017-04-01T05:00:00Z,29.6350,-93.6417,2.0,18.0284,11111222 
TABS,ioos:station:wmo:42051:1,2017-04-01T05:30:00Z,29.6350,-93.6417,2.0,17.9349,11111222 
TABS,ioos:station:wmo:42051:1,2017-04-01T06:00:00Z,29.6350,-93.6417,2.0,17.899,11111222 
TABS,ioos:station:wmo:42051:1,2017-04-01T06:30:00Z,29.6350,-93.6417,2.0,17.9598,11111222 
TABS,ioos:station:wmo:42051:1,2017-04-01T07:00:00Z,29.6350,-93.6417,2.0,17.9623,11111222 
TABS,ioos:station:wmo:42051:1,2017-04-01T07:30:00Z,29.6350,-93.6417,2.0,17.9565,11111222 
TABS,ioos:station:wmo:42051:1,2017-04-01T08:00:00Z,29.6350,-93.6417,2.0,17.9985,11111222 
TABS,ioos:station:wmo:42051:1,2017-04-01T08:30:00Z,29.6350,-93.6417,2.0,18.0314,11111222 
TABS,ioos:station:wmo:42051:1,2017-04-01T09:00:00Z,29.6350,-93.6417,2.0,18.1916,11111222 
TABS,ioos:station:wmo:42051:1,2017-04-01T09:30:00Z,29.6350,-93.6417,2.0,18.4472,11111222 
TABS,ioos:station:wmo:42051:1,2017-04-01T10:00:00Z,29.6350,-93.6417,2.0,18.5964,11111222 
TABS,ioos:station:wmo:42051:1,2017-04-01T10:30:00Z,29.6350,-93.6417,2.0,18.8211,11111222 
TABS,ioos:station:wmo:42051:1,2017-04-01T11:00:00Z,29.6350,-93.6417,2.0,18.9285,11111222 
TABS,ioos:station:wmo:42051:1,2017-04-01T11:30:00Z,29.6350,-93.6417,2.0,19.0477,11111222 
TABS,ioos:station:wmo:42051:1,2017-04-01T12:00:00Z,29.6350,-93.6417,2.0,19.1809,11111222 
TABS,ioos:station:wmo:42051:1,2017-04-01T12:30:00Z,29.6350,-93.6417,2.0,19.4355,11111222 
TABS,ioos:station:wmo:42051:1,2017-04-01T13:00:00Z,29.6350,-93.6417,2.0,19.7606,11111222 
TABS,ioos:station:wmo:42051:1,2017-04-01T13:30:00Z,29.6350,-93.6417,2.0,19.7969,11111222 
TABS,ioos:station:wmo:42051:1,2017-04-01T14:00:00Z,29.6350,-93.6417,2.0,19.5723,11111222 
TABS,ioos:station:wmo:42051:1,2017-04-01T14:30:00Z,29.6350,-93.6417,2.0,19.5585,11111222 
TABS,ioos:station:wmo:42051:1,2017-04-01T15:00:00Z,29.6350,-93.6417,2.0,19.2679,11111222 
TABS,ioos:station:wmo:42051:1,2017-04-01T15:30:00Z,29.6350,-93.6417,2.0,19.3742,11111222 
TABS,ioos:station:wmo:42051:1,2017-04-01T16:00:00Z,29.6350,-93.6417,2.0,19.5359,11111222 
TABS,ioos:station:wmo:42051:1,2017-04-01T16:30:00Z,29.6350,-93.6417,2.0,19.6351,11111222 
TABS,ioos:station:wmo:42051:1,2017-04-01T17:00:00Z,29.6350,-93.6417,2.0,19.6192,11111222 
TABS,ioos:station:wmo:42051:1,2017-04-01T17:30:00Z,29.6350,-93.6417,2.0,19.5362,11111222 
TABS,ioos:station:wmo:42051:1,2017-04-01T18:00:00Z,29.6350,-93.6417,2.0,19.7551,11111222 
TABS,ioos:station:wmo:42051:1,2017-04-01T18:30:00Z,29.6350,-93.6417,2.0,19.8974,11111222 
TABS,ioos:station:wmo:42051:1,2017-04-01T19:00:00Z,29.6350,-93.6417,2.0,19.492,11111222 
TABS,ioos:station:wmo:42051:1,2017-04-01T19:30:00Z,29.6350,-93.6417,2.0,19.4763,11111222 
TABS,ioos:station:wmo:42051:1,2017-04-01T20:00:00Z,29.6350,-93.6417,2.0,19.3747,11111222 
TABS,ioos:station:wmo:42051:1,2017-04-01T20:30:00Z,29.6350,-93.6417,2.0,19.2386,11111222 
TABS,ioos:station:wmo:42051:1,2017-04-01T21:00:00Z,29.6350,-93.6417,2.0,19.287,11111222 
TABS,ioos:station:wmo:42051:1,2017-04-01T21:30:00Z,29.6350,-93.6417,2.0,19.0961,11111222 
TABS,ioos:station:wmo:42051:1,2017-04-01T22:00:00Z,29.6350,-93.6417,2.0,19.0001,11111222 
TABS,ioos:station:wmo:42051:1,2017-04-01T22:30:00Z,29.6350,-93.6417,2.0,18.8826,11111222 
TABS,ioos:station:wmo:42051:1,2017-04-01T23:00:00Z,29.6350,-93.6417,2.0,18.9645,11111222 
TABS,ioos:station:wmo:42051:1,2017-04-01T23:30:00Z,29.6350,-93.6417,2.0,18.8603,11111222 
TABS,ioos:station:wmo:42051:1,2017-04-02T00:00:00Z,29.6350,-93.6417,2.0,18.8707,11111222 
TABS,ioos:station:wmo:42051:1,2017-04-02T00:30:00Z,29.6350,-93.6417,2.0,18.8483,11111222 
TABS,ioos:station:wmo:42051:1,2017-04-02T01:00:00Z,29.6350,-93.6417,2.0,19.0349,11111222 
TABS,ioos:station:wmo:42051:1,2017-04-02T01:30:00Z,29.6350,-93.6417,2.0,19.0581,11111222 
TABS,ioos:station:wmo:42051:1,2017-04-02T02:00:00Z,29.6350,-93.6417,2.0,19.0541,11111222 
TABS,ioos:station:wmo:42051:1,2017-04-02T02:30:00Z,29.6350,-93.6417,2.0,19.1743,11111222 
TABS,ioos:station:wmo:42051:1,2017-04-02T03:00:00Z,29.6350,-93.6417,2.0,19.5036,11111222 
TABS,ioos:station:wmo:42051:1,2017-04-02T03:30:00Z,29.6350,-93.6417,2.0,19.8497,11111222 
TABS,ioos:station:wmo:42051:1,2017-04-02T04:00:00Z,29.6350,-93.6417,2.0,19.6589,11111222 
TABS,ioos:station:wmo:42051:1,2017-04-02T04:30:00Z,29.6350,-93.6417,2.0,19.8445,11111222 
TABS,ioos:station:wmo:42051:1,2017-04-02T05:00:00Z,29.6350,-93.6417,2.0,20.0337,11111222 
TABS,ioos:station:wmo:42051:1,2017-04-02T05:30:00Z,29.6350,-93.6417,2.0,20.248,11111222 
TABS,ioos:station:wmo:42051:1,2017-04-02T06:00:00Z,29.6350,-93.6417,2.0,20.0519,11111222 
TABS,ioos:station:wmo:42051:1,2017-04-02T06:30:00Z,29.6350,-93.6417,2.0,19.9726,11111222 
TABS,ioos:station:wmo:42051:1,2017-04-02T07:00:00Z,29.6350,-93.6417,2.0,20.0585,11111222 
TABS,ioos:station:wmo:42051:1,2017-04-02T07:30:00Z,29.6350,-93.6417,2.0,19.8131,11111222 
TABS,ioos:station:wmo:42051:1,2017-04-02T08:00:00Z,29.6350,-93.6417,2.0,19.6686,11111222 
TABS,ioos:station:wmo:42051:1,2017-04-02T08:30:00Z,29.6350,-93.6417,2.0,19.6433,11111222 
TABS,ioos:station:wmo:42051:1,2017-04-02T09:00:00Z,29.6350,-93.6417,2.0,19.9348,11111222 
TABS,ioos:station:wmo:42051:1,2017-04-02T09:30:00Z,29.6350,-93.6417,2.0,19.8714,11111222 
TABS,ioos:station:wmo:42051:1,2017-04-02T10:00:00Z,29.6350,-93.6417,2.0,19.7452,11111222 
TABS,ioos:station:wmo:42051:1,2017-04-02T10:30:00Z,29.6350,-93.6417,2.0,19.7303,11111222 
TABS,ioos:station:wmo:42051:1,2017-04-02T11:00:00Z,29.6350,-93.6417,2.0,19.8145,11111222 
TABS,ioos:station:wmo:42051:1,2017-04-02T11:30:00Z,29.6350,-93.6417,2.0,19.5796,11111222 
TABS,ioos:station:wmo:42051:1,2017-04-02T12:00:00Z,29.6350,-93.6417,2.0,19.5207,11111222 
TABS,ioos:station:wmo:42051:1,2017-04-02T12:30:00Z,29.6350,-93.6417,2.0,19.8834,11111222 
TABS,ioos:station:wmo:42051:1,2017-04-02T13:00:00Z,29.6350,-93.6417,2.0,19.9269,11111222 
TABS,ioos:station:wmo:42051:1,2017-04-02T15:00:00Z,29.6350,-93.6417,2.0,19.3398,11111222 
TABS,ioos:station:wmo:42051:1,2017-04-02T15:30:00Z,29.6350,-93.6417,2.0,19.3507,11111222 
TABS,ioos:station:wmo:42051:1,2017-04-02T16:00:00Z,29.6350,-93.6417,2.0,19.4984,11111222 
TABS,ioos:station:wmo:42051:1,2017-04-02T16:30:00Z,29.6350,-93.6417,2.0,19.6725,11111222 
TABS,ioos:station:wmo:42051:1,2017-04-02T17:00:00Z,29.6350,-93.6417,2.0,19.7589,11111222 
TABS,ioos:station:wmo:42051:1,2017-04-02T17:30:00Z,29.6350,-93.6417,2.0,19.9676,11111222 
TABS,ioos:station:wmo:42051:1,2017-04-02T18:00:00Z,29.6350,-93.6417,2.0,20.0215,11111222 
TABS,ioos:station:wmo:42051:1,2017-04-02T18:30:00Z,29.6350,-93.6417,2.0,20.3146,11111222 
TABS,ioos:station:wmo:42051:1,2017-04-02T19:00:00Z,29.6350,-93.6417,2.0,20.5759,11111222 
TABS,ioos:station:wmo:42051:1,2017-04-02T19:30:00Z,29.6350,-93.6417,2.0,21.2817,11111222 
TABS,ioos:station:wmo:42051:1,2017-04-02T20:00:00Z,29.6350,-93.6417,2.0,21.9801,11111222 
TABS,ioos:station:wmo:42051:1,2017-04-02T20:30:00Z,29.6350,-93.6417,2.0,22.785,11111222 
TABS,ioos:station:wmo:42051:1,2017-04-02T21:00:00Z,29.6350,-93.6417,2.0,24.4712,11111222 
TABS,ioos:station:wmo:42051:1,2017-04-02T21:30:00Z,29.6350,-93.6417,2.0,24.6035,11111222 
TABS,ioos:station:wmo:42051:1,2017-04-02T22:00:00Z,29.6350,-93.6417,2.0,24.2022,11111222 
TABS,ioos:station:wmo:42051:1,2017-04-02T22:30:00Z,29.6350,-93.6417,2.0,24.0931,11111222 
TABS,ioos:station:wmo:42051:1,2017-04-02T23:00:00Z,29.6350,-93.6417,2.0,23.5951,11111222 
TABS,ioos:station:wmo:42051:1,2017-04-02T23:30:00Z,29.6350,-93.6417,2.0,23.0857,11111222 
TABS,ioos:station:wmo:42051:1,2017-04-03T00:00:00Z,29.6350,-93.6417,2.0,22.6873,11111222 
TABS,ioos:station:wmo:42051:1,2017-04-03T00:30:00Z,29.6350,-93.6417,2.0,23.0795,11111222 
TABS,ioos:station:wmo:42051:1,2017-04-03T01:00:00Z,29.6350,-93.6417,2.0,23.6956,11111222 
TABS,ioos:station:wmo:42051:1,2017-04-03T01:30:00Z,29.6350,-93.6417,2.0,23.8152,11111222 
TABS,ioos:station:wmo:42051:1,2017-04-03T02:00:00Z,29.6350,-93.6417,2.0,24.2827,11111222 
TABS,ioos:station:wmo:42051:1,2017-04-03T02:30:00Z,29.6350,-93.6417,2.0,24.6319,11111222 
TABS,ioos:station:wmo:42051:1,2017-04-03T03:00:00Z,29.6350,-93.6417,2.0,23.4666,11111222 
TABS,ioos:station:wmo:42051:1,2017-04-03T03:30:00Z,29.6350,-93.6417,2.0,22.9167,11111222 
TABS,ioos:station:wmo:42051:1,2017-04-03T04:00:00Z,29.6350,-93.6417,2.0,22.052,11111222 
TABS,ioos:station:wmo:42051:1,2017-04-03T04:30:00Z,29.6350,-93.6417,2.0,21.9822,11111222 
TABS,ioos:station:wmo:42051:1,2017-04-03T05:00:00Z,29.6350,-93.6417,2.0,21.4367,11111222 
TABS,ioos:station:wmo:42051:1,2017-04-03T05:30:00Z,29.6350,-93.6417,2.0,21.2333,11111222 
TABS,ioos:station:wmo:42051:1,2017-04-03T06:00:00Z,29.6350,-93.6417,2.0,20.937,11111222 
TABS,ioos:station:wmo:42051:1,2017-04-03T06:30:00Z,29.6350,-93.6417,2.0,20.6846,11111222 
TABS,ioos:station:wmo:42051:1,2017-04-03T07:00:00Z,29.6350,-93.6417,2.0,20.41,11111222 
TABS,ioos:station:wmo:42051:1,2017-04-03T07:30:00Z,29.6350,-93.6417,2.0,20.4184,11111222 
TABS,ioos:station:wmo:42051:1,2017-04-03T08:00:00Z,29.6350,-93.6417,2.0,20.5029,11111222 
TABS,ioos:station:wmo:42051:1,2017-04-03T08:30:00Z,29.6350,-93.6417,2.0,20.4227,11111222 
TABS,ioos:station:wmo:42051:1,2017-04-03T09:00:00Z,29.6350,-93.6417,2.0,20.0804,11111222 
TABS,ioos:station:wmo:42051:1,2017-04-03T09:30:00Z,29.6350,-93.6417,2.0,19.9579,11111222 
TABS,ioos:station:wmo:42051:1,2017-04-03T10:00:00Z,29.6350,-93.6417,2.0,20.1871,11111222 
TABS,ioos:station:wmo:42051:1,2017-04-03T10:30:00Z,29.6350,-93.6417,2.0,19.3944,11111222 
TABS,ioos:station:wmo:42051:1,2017-04-03T11:00:00Z,29.6350,-93.6417,2.0,19.6906,11111222 
TABS,ioos:station:wmo:42051:1,2017-04-03T11:30:00Z,29.6350,-93.6417,2.0,19.9856,11111222 
TABS,ioos:station:wmo:42051:1,2017-04-03T12:00:00Z,29.6350,-93.6417,2.0,20.0315,11111222 
TABS,ioos:station:wmo:42051:1,2017-04-03T12:30:00Z,29.6350,-93.6417,2.0,20.3264,11111222 
TABS,ioos:station:wmo:42051:1,2017-04-03T13:00:00Z,29.6350,-93.6417,2.0,20.2176,11111222 
TABS,ioos:station:wmo:42051:1,2017-04-03T13:30:00Z,29.6350,-93.6417,2.0,20.5387,11111222 
TABS,ioos:station:wmo:42051:1,2017-04-03T14:00:00Z,29.6350,-93.6417,2.0,20.7024,11111222 
TABS,ioos:station:wmo:42051:1,2017-04-03T14:30:00Z,29.6350,-93.6417,2.0,20.6391,11111222 
TABS,ioos:station:wmo:42051:1,2017-04-03T15:00:00Z,29.6350,-93.6417,2.0,20.5819,11111222 
TABS,ioos:station:wmo:42051:1,2017-04-03T15:30:00Z,29.6350,-93.6417,2.0,20.5843,11111222 
TABS,ioos:station:wmo:42051:1,2017-04-03T16:00:00Z,29.6350,-93.6417,2.0,20.6291,11111222 
TABS,ioos:station:wmo:42051:1,2017-04-03T16:30:00Z,29.6350,-93.6417,2.0,20.5548,11111222 
TABS,ioos:station:wmo:42051:1,2017-04-03T17:00:00Z,29.6350,-93.6417,2.0,20.4674,11111222 
TABS,ioos:station:wmo:42051:1,2017-04-03T17:30:00Z,29.6350,-93.6417,2.0,20.3603,11111222 
TABS,ioos:station:wmo:42051:1,2017-04-03T18:00:00Z,29.6350,-93.6417,2.0,20.1206,11111222 
TABS,ioos:station:wmo:42051:1,2017-04-03T18:30:00Z,29.6350,-93.6417,2.0,19.8856,11111222 
TABS,ioos:station:wmo:42051:1,2017-04-03T19:00:00Z,29.6350,-93.6417,2.0,19.9338,11111222 
TABS,ioos:station:wmo:42051:1,2017-04-03T19:30:00Z,29.6350,-93.6417,2.0,19.772,11111222 
TABS,ioos:station:wmo:42051:1,2017-04-03T20:00:00Z,29.6350,-93.6417,2.0,19.5458,11111222 
TABS,ioos:station:wmo:42051:1,2017-04-03T20:30:00Z,29.6350,-93.6417,2.0,19.5083,11111222 
TABS,ioos:station:wmo:42051:1,2017-04-03T21:00:00Z,29.6350,-93.6417,2.0,19.5015,11111222 
TABS,ioos:station:wmo:42051:1,2017-04-03T21:30:00Z,29.6350,-93.6417,2.0,19.4841,11111222 
TABS,ioos:station:wmo:42051:1,2017-04-03T22:00:00Z,29.6350,-93.6417,2.0,19.4542,11111222 
TABS,ioos:station:wmo:42051:1,2017-04-03T22:30:00Z,29.6350,-93.6417,2.0,19.4543,11111222 
TABS,ioos:station:wmo:42051:1,2017-04-03T23:00:00Z,29.6350,-93.6417,2.0,19.4697,11111222 
TABS,ioos:station:wmo:42051:1,2017-04-03T23:30:00Z,29.6350,-93.6417,2.0,19.5433,11111222 
TABS,ioos:station:wmo:42051:1,2017-04-04T00:00:00Z,29.6350,-93.6417,2.0,19.6332,11111222 
TABS,ioos:station:wmo:42051:1,2017-04-04T00:30:00Z,29.6350,-93.6417,2.0,19.7029,11111222 
TABS,ioos:station:wmo:42051:1,2017-04-04T01:00:00Z,29.6350,-93.6417,2.0,19.7349,11111222 
TABS,ioos:station:wmo:42051:1,2017-04-04T01:30:00Z,29.6350,-93.6417,2.0,19.7879,11111222 
TABS,ioos:station:wmo:42051:1,2017-04-04T02:00:00Z,29.6350,-93.6417,2.0,19.7856,11111222 
TABS,ioos:station:wmo:42051:1,2017-04-04T02:30:00Z,29.6350,-93.6417,2.0,19.8088,11111222 
TABS,ioos:station:wmo:42051:1,2017-04-04T03:00:00Z,29.6350,-93.6417,2.0,19.7798,11111222 
TABS,ioos:station:wmo:42051:1,2017-04-04T03:30:00Z,29.6350,-93.6417,2.0,19.8023,11111222 
TABS,ioos:station:wmo:42051:1,2017-04-04T04:00:00Z,29.6350,-93.6417,2.0,19.825,11111222 
TABS,ioos:station:wmo:42051:1,2017-04-04T04:30:00Z,29.6350,-93.6417,2.0,19.8267,11111222 
TABS,ioos:station:wmo:42051:1,2017-04-04T05:00:00Z,29.6350,-93.6417,2.0,19.9765,11111222 
TABS,ioos:station:wmo:42051:1,2017-04-04T05:30:00Z,29.6350,-93.6417,2.0,19.9895,11111222 
TABS,ioos:station:wmo:42051:1,2017-04-04T06:00:00Z,29.6350,-93.6417,2.0,20.1637,11111222 
TABS,ioos:station:wmo:42051:1,2017-04-04T06:30:00Z,29.6350,-93.6417,2.0,20.2227,11111222 
TABS,ioos:station:wmo:42051:1,2017-04-04T07:00:00Z,29.6350,-93.6417,2.0,20.2417,11111222 
TABS,ioos:station:wmo:42051:1,2017-04-04T07:30:00Z,29.6350,-93.6417,2.0,20.1384,11111222 
TABS,ioos:station:wmo:42051:1,2017-04-04T08:00:00Z,29.6350,-93.6417,2.0,19.9745,11111222 
TABS,ioos:station:wmo:42051:1,2017-04-04T08:30:00Z,29.6350,-93.6417,2.0,19.7338,11111222 
TABS,ioos:station:wmo:42051:1,2017-04-04T09:00:00Z,29.6350,-93.6417,2.0,19.6706,11111222 
TABS,ioos:station:wmo:42051:1,2017-04-04T09:30:00Z,29.6350,-93.6417,2.0,19.7323,11111222 
TABS,ioos:station:wmo:42051:1,2017-04-04T10:00:00Z,29.6350,-93.6417,2.0,19.741,11111222 
TABS,ioos:station:wmo:42051:1,2017-04-04T10:30:00Z,29.6350,-93.6417,2.0,19.8607,11111222 
TABS,ioos:station:wmo:42051:1,2017-04-04T11:00:00Z,29.6350,-93.6417,2.0,20.1297,11111222 
TABS,ioos:station:wmo:42051:1,2017-04-04T11:30:00Z,29.6350,-93.6417,2.0,20.5111,11111222 
TABS,ioos:station:wmo:42051:1,2017-04-04T12:00:00Z,29.6350,-93.6417,2.0,20.7269,11111222 
TABS,ioos:station:wmo:42051:1,2017-04-04T12:30:00Z,29.6350,-93.6417,2.0,20.6622,11111222 
TABS,ioos:station:wmo:42051:1,2017-04-04T13:00:00Z,29.6350,-93.6417,2.0,20.6278,11111222 
TABS,ioos:station:wmo:42051:1,2017-04-04T13:30:00Z,29.6350,-93.6417,2.0,20.6357,11111222 
TABS,ioos:station:wmo:42051:1,2017-04-04T14:00:00Z,29.6350,-93.6417,2.0,20.5505,11111222 
TABS,ioos:station:wmo:42051:1,2017-04-04T14:30:00Z,29.6350,-93.6417,2.0,20.4626,11111222 
TABS,ioos:station:wmo:42051:1,2017-04-04T15:00:00Z,29.6350,-93.6417,2.0,20.5419,11111222 
TABS,ioos:station:wmo:42051:1,2017-04-04T15:30:00Z,29.6350,-93.6417,2.0,19.5391,11111222 
TABS,ioos:station:wmo:42051:1,2017-04-04T16:00:00Z,29.6350,-93.6417,2.0,19.4229,11111222 
TABS,ioos:station:wmo:42051:1,2017-04-04T16:30:00Z,29.6350,-93.6417,2.0,19.412,11111222 
TABS,ioos:station:wmo:42051:1,2017-04-04T17:00:00Z,29.6350,-93.6417,2.0,19.5172,11111222 
TABS,ioos:station:wmo:42051:1,2017-04-04T17:30:00Z,29.6350,-93.6417,2.0,19.6366,11111222 
TABS,ioos:station:wmo:42051:1,2017-04-04T18:00:00Z,29.6350,-93.6417,2.0,19.6912,11111222 
TABS,ioos:station:wmo:42051:1,2017-04-04T18:30:00Z,29.6350,-93.6417,2.0,19.7744,11111222 
TABS,ioos:station:wmo:42051:1,2017-04-04T19:00:00Z,29.6350,-93.6417,2.0,19.9051,11111222 
TABS,ioos:station:wmo:42051:1,2017-04-04T19:30:00Z,29.6350,-93.6417,2.0,19.944,11111222 
TABS,ioos:station:wmo:42051:1,2017-04-04T20:00:00Z,29.6350,-93.6417,2.0,19.8988,11111222 
TABS,ioos:station:wmo:42051:1,2017-04-04T20:30:00Z,29.6350,-93.6417,2.0,19.7589,11111222 
TABS,ioos:station:wmo:42051:1,2017-04-04T21:00:00Z,29.6350,-93.6417,2.0,19.6803,11111222 
TABS,ioos:station:wmo:42051:1,2017-04-04T21:30:00Z,29.6350,-93.6417,2.0,19.6411,11111222 
TABS,ioos:station:wmo:42051:1,2017-04-04T22:00:00Z,29.6350,-93.6417,2.0,19.6524,11111222 
TABS,ioos:station:wmo:42051:1,2017-04-04T22:30:00Z,29.6350,-93.6417,2.0,19.6946,11111222 
TABS,ioos:station:wmo:42051:1,2017-04-04T23:00:00Z,29.6350,-93.6417,2.0,19.7418,11111222 
TABS,ioos:station:wmo:42051:1,2017-04-04T23:30:00Z,29.6350,-93.6417,2.0,19.8137,11111222 
TABS,ioos:station:wmo:42051:1,2017-04-05T00:00:00Z,29.6350,-93.6417,2.0,19.8389,11111222 
TABS,ioos:station:wmo:42051:1,2017-04-05T00:30:00Z,29.6350,-93.6417,2.0,20.0079,11111222 
TABS,ioos:station:wmo:42051:1,2017-04-05T01:00:00Z,29.6350,-93.6417,2.0,20.1855,11111222 
TABS,ioos:station:wmo:42051:1,2017-04-05T01:30:00Z,29.6350,-93.6417,2.0,20.2471,11111222 
TABS,ioos:station:wmo:42051:1,2017-04-05T02:00:00Z,29.6350,-93.6417,2.0,20.3282,11111222 
TABS,ioos:station:wmo:42051:1,2017-04-05T02:30:00Z,29.6350,-93.6417,2.0,20.4897,11111222 
TABS,ioos:station:wmo:42051:1,2017-04-05T03:00:00Z,29.6350,-93.6417,2.0,20.6608,11111222 
TABS,ioos:station:wmo:42051:1,2017-04-05T03:30:00Z,29.6350,-93.6417,2.0,20.964,11111222 
TABS,ioos:station:wmo:42051:1,2017-04-05T04:00:00Z,29.6350,-93.6417,2.0,21.0195,11111222 
TABS,ioos:station:wmo:42051:1,2017-04-05T04:30:00Z,29.6350,-93.6417,2.0,20.9615,11111222 
TABS,ioos:station:wmo:42051:1,2017-04-05T05:00:00Z,29.6350,-93.6417,2.0,20.8947,11111222 
TABS,ioos:station:wmo:42051:1,2017-04-05T05:30:00Z,29.6350,-93.6417,2.0,20.5288,11111222 
TABS,ioos:station:wmo:42051:1,2017-04-05T06:00:00Z,29.6350,-93.6417,2.0,20.6172,11111222 
TABS,ioos:station:wmo:42051:1,2017-04-05T06:30:00Z,29.6350,-93.6417,2.0,20.6311,11111222 
TABS,ioos:station:wmo:42051:1,2017-04-05T07:00:00Z,29.6350,-93.6417,2.0,20.647,11111222 
TABS,ioos:station:wmo:42051:1,2017-04-05T07:30:00Z,29.6350,-93.6417,2.0,20.6148,11111222 
TABS,ioos:station:wmo:42051:1,2017-04-05T08:00:00Z,29.6350,-93.6417,2.0,20.6654,11111222 
TABS,ioos:station:wmo:42051:1,2017-04-05T08:30:00Z,29.6350,-93.6417,2.0,20.6323,11111222 
TABS,ioos:station:wmo:42051:1,2017-04-05T09:00:00Z,29.6350,-93.6417,2.0,20.7206,11111222 
TABS,ioos:station:wmo:42051:1,2017-04-05T09:30:00Z,29.6350,-93.6417,2.0,20.795,11111222 
TABS,ioos:station:wmo:42051:1,2017-04-05T10:00:00Z,29.6350,-93.6417,2.0,20.9593,11111222 
TABS,ioos:station:wmo:42051:1,2017-04-05T10:30:00Z,29.6350,-93.6417,2.0,21.1192,11111222 
TABS,ioos:station:wmo:42051:1,2017-04-05T11:00:00Z,29.6350,-93.6417,2.0,21.2798,11111222 
TABS,ioos:station:wmo:42051:1,2017-04-05T11:30:00Z,29.6350,-93.6417,2.0,21.4317,11111222 
TABS,ioos:station:wmo:42051:1,2017-04-05T12:00:00Z,29.6350,-93.6417,2.0,21.597,11111222 
TABS,ioos:station:wmo:42051:1,2017-04-05T12:30:00Z,29.6350,-93.6417,2.0,21.761,11111222 
TABS,ioos:station:wmo:42051:1,2017-04-05T13:00:00Z,29.6350,-93.6417,2.0,21.8735,11111222 
TABS,ioos:station:wmo:42051:1,2017-04-05T13:30:00Z,29.6350,-93.6417,2.0,21.9707,11111222 
TABS,ioos:station:wmo:42051:1,2017-04-05T14:00:00Z,29.6350,-93.6417,2.0,22.1519,11111222 
TABS,ioos:station:wmo:42051:1,2017-04-05T14:30:00Z,29.6350,-93.6417,2.0,22.2802,11111222 
TABS,ioos:station:wmo:42051:1,2017-04-05T15:00:00Z,29.6350,-93.6417,2.0,22.5025,11111222 
TABS,ioos:station:wmo:42051:1,2017-04-05T15:30:00Z,29.6350,-93.6417,2.0,22.5674,11111222 
TABS,ioos:station:wmo:42051:1,2017-04-05T16:00:00Z,29.6350,-93.6417,2.0,22.5715,11111222 
TABS,ioos:station:wmo:42051:1,2017-04-05T16:30:00Z,29.6350,-93.6417,2.0,22.7223,11111222 
TABS,ioos:station:wmo:42051:1,2017-04-05T17:00:00Z,29.6350,-93.6417,2.0,22.8401,11111222 
TABS,ioos:station:wmo:42051:1,2017-04-05T17:30:00Z,29.6350,-93.6417,2.0,22.8865,11111222 
TABS,ioos:station:wmo:42051:1,2017-04-05T18:00:00Z,29.6350,-93.6417,2.0,22.8653,11111222 
TABS,ioos:station:wmo:42051:1,2017-04-05T18:30:00Z,29.6350,-93.6417,2.0,22.775,11111222 
TABS,ioos:station:wmo:42051:1,2017-04-05T19:00:00Z,29.6350,-93.6417,2.0,22.7727,11111222 
TABS,ioos:station:wmo:42051:1,2017-04-05T19:30:00Z,29.6350,-93.6417,2.0,22.8577,11111222 
TABS,ioos:station:wmo:42051:1,2017-04-05T20:00:00Z,29.6350,-93.6417,2.0,23.0143,11111222 
TABS,ioos:station:wmo:42051:1,2017-04-05T20:30:00Z,29.6350,-93.6417,2.0,23.0937,11111222 
TABS,ioos:station:wmo:42051:1,2017-04-05T21:00:00Z,29.6350,-93.6417,2.0,23.1366,11111222 
TABS,ioos:station:wmo:42051:1,2017-04-05T21:30:00Z,29.6350,-93.6417,2.0,23.1974,11111222 
TABS,ioos:station:wmo:42051:1,2017-04-05T22:00:00Z,29.6350,-93.6417,2.0,23.2669,11111222 
TABS,ioos:station:wmo:42051:1,2017-04-05T22:30:00Z,29.6350,-93.6417,2.0,23.339,11111222 
TABS,ioos:station:wmo:42051:1,2017-04-05T23:00:00Z,29.6350,-93.6417,2.0,23.4209,11111222 
TABS,ioos:station:wmo:42051:1,2017-04-05T23:30:00Z,29.6350,-93.6417,2.0,23.5106,11111222 
TABS,ioos:station:wmo:42051:1,2017-04-06T00:00:00Z,29.6350,-93.6417,2.0,23.5263,11111222 
TABS,ioos:station:wmo:42051:1,2017-04-06T00:30:00Z,29.6350,-93.6417,2.0,23.5455,11111222 
TABS,ioos:station:wmo:42051:1,2017-04-06T01:00:00Z,29.6350,-93.6417,2.0,23.6209,11111222 
TABS,ioos:station:wmo:42051:1,2017-04-06T01:30:00Z,29.6350,-93.6417,2.0,23.6387,11111222 
TABS,ioos:station:wmo:42051:1,2017-04-06T02:00:00Z,29.6350,-93.6417,2.0,23.6691,11111222 
TABS,ioos:station:wmo:42051:1,2017-04-06T02:30:00Z,29.6350,-93.6417,2.0,23.7286,11111222 
TABS,ioos:station:wmo:42051:1,2017-04-06T03:00:00Z,29.6350,-93.6417,2.0,23.7633,11111222 
TABS,ioos:station:wmo:42051:1,2017-04-06T03:30:00Z,29.6350,-93.6417,2.0,23.8382,11111222 
TABS,ioos:station:wmo:42051:1,2017-04-06T04:00:00Z,29.6350,-93.6417,2.0,23.826,11111222 
TABS,ioos:station:wmo:42051:1,2017-04-06T04:30:00Z,29.6350,-93.6417,2.0,23.8506,11111222 
TABS,ioos:station:wmo:42051:1,2017-04-06T05:00:00Z,29.6350,-93.6417,2.0,23.9123,11111222 
TABS,ioos:station:wmo:42051:1,2017-04-06T05:30:00Z,29.6350,-93.6417,2.0,23.9185,11111222 
TABS,ioos:station:wmo:42051:1,2017-04-06T06:00:00Z,29.6350,-93.6417,2.0,23.9658,11111222 
TABS,ioos:station:wmo:42051:1,2017-04-06T06:30:00Z,29.6350,-93.6417,2.0,23.9814,11111222 
TABS,ioos:station:wmo:42051:1,2017-04-06T07:00:00Z,29.6350,-93.6417,2.0,24.0338,11111222 
TABS,ioos:station:wmo:42051:1,2017-04-06T07:30:00Z,29.6350,-93.6417,2.0,24.0438,11111222 
TABS,ioos:station:wmo:42051:1,2017-04-06T08:00:00Z,29.6350,-93.6417,2.0,24.0583,11111222 
TABS,ioos:station:wmo:42051:1,2017-04-06T08:30:00Z,29.6350,-93.6417,2.0,24.1763,11111222 
TABS,ioos:station:wmo:42051:1,2017-04-06T09:00:00Z,29.6350,-93.6417,2.0,24.2387,11111222 
TABS,ioos:station:wmo:42051:1,2017-04-06T09:30:00Z,29.6350,-93.6417,2.0,24.3086,11111222 
TABS,ioos:station:wmo:42051:1,2017-04-06T10:00:00Z,29.6350,-93.6417,2.0,24.449,11111222 
TABS,ioos:station:wmo:42051:1,2017-04-06T10:30:00Z,29.6350,-93.6417,2.0,24.5503,11111222 
TABS,ioos:station:wmo:42051:1,2017-04-06T11:00:00Z,29.6350,-93.6417,2.0,24.638,11111222 
TABS,ioos:station:wmo:42051:1,2017-04-06T11:30:00Z,29.6350,-93.6417,2.0,24.7105,11111222 
TABS,ioos:station:wmo:42051:1,2017-04-06T12:00:00Z,29.6350,-93.6417,2.0,24.8767,11111222 
TABS,ioos:station:wmo:42051:1,2017-04-06T12:30:00Z,29.6350,-93.6417,2.0,24.9988,11111222 
TABS,ioos:station:wmo:42051:1,2017-04-06T13:00:00Z,29.6350,-93.6417,2.0,25.1516,11111222 
TABS,ioos:station:wmo:42051:1,2017-04-06T13:30:00Z,29.6350,-93.6417,2.0,25.1992,11111222 